This is the latest recevied weather packets stored in our database for station/object N2PPN. If no packets are shown the sender has not sent any weather packets the latest 10 day(s).
| Time | Temp. | Humidity | Pressure | Rain* | Wind** | Luminosity | Snow |
|---|---|---|---|---|---|---|---|
| 1777774809 | 11.67° C | 50% | 1013.9 hPa | 0 mm | - | 0 W/m² | - |
| 1777774506 | 11.67° C | 50% | 1013.9 hPa | 0 mm | - | 0 W/m² | - |
| 1777774203 | 11.67° C | 49% | 1013.8 hPa | 0 mm | - | 0 W/m² | - |
| 1777773900 | 11.67° C | 50% | 1014 hPa | 0 mm | - | 0 W/m² | - |
| 1777773596 | 11.67° C | 52% | 1013.9 hPa | 0 mm | - | 0 W/m² | - |
| 1777773294 | 11.67° C | 55% | 1014.1 hPa | 0 mm | - | 0 W/m² | - |
| 1777772990 | 10.56° C | 61% | 1014 hPa | 0 mm | - | 0 W/m² | - |
| 1777772687 | 10.56° C | 79% | 1014 hPa | 0 mm | - | 0 W/m² | - |
| 1777772385 | 10.56° C | 80% | 1013.7 hPa | 0 mm | - | 0 W/m² | - |
| 1777772082 | 10.56° C | 81% | 1013.9 hPa | 0 mm | - | 0 W/m² | - |
| 1777771779 | 10.56° C | 82% | 1013.8 hPa | 0 mm | - | 0 W/m² | - |
| 1777771477 | 10.56° C | 82% | 1013.8 hPa | 0 mm | - | 0 W/m² | - |
| 1777771172 | 11.11° C | 81% | 1013.8 hPa | 0 mm | - | 0 W/m² | - |
| 1777770870 | 11.11° C | 81% | 1014 hPa | 0 mm | - | 0 W/m² | - |
| 1777770567 | 11.11° C | 82% | 1013.8 hPa | 0 mm | - | 0 W/m² | - |
| 1777770263 | 11.11° C | 82% | 1014 hPa | 0 mm | - | 0 W/m² | - |
| 1777769961 | 11.11° C | 82% | 1013.6 hPa | 0 mm | - | 0 W/m² | - |
| 1777769658 | 11.67° C | 81% | 1013.6 hPa | 0 mm | - | 0 W/m² | - |
| 1777769354 | 11.67° C | 81% | 1013.6 hPa | 0 mm | - | 0 W/m² | - |
| 1777769051 | 11.67° C | 80% | 1013.5 hPa | 0 mm | - | 0 W/m² | - |
| 1777768749 | 11.67° C | 79% | 1013.3 hPa | 0 mm | - | 0 W/m² | - |
| 1777768445 | 11.67° C | 78% | 1013.4 hPa | 0 mm | - | 0 W/m² | - |
| 1777768143 | 11.67° C | 77% | 1013.5 hPa | 0 mm | - | 0 W/m² | - |
| 1777767840 | 11.67° C | 77% | 1013.2 hPa | 0 mm | - | 0 W/m² | - |
| 1777767536 | 12.22° C | 76% | 1013.4 hPa | 0 mm | - | 0 W/m² | - |
* Rain latest hour (hover to see other rain measurements)
** Current wind speed in m/s (hover to see current wind gust speed)